Regional Weather Roundup
Issued by NWS Raleigh/Durham, NC

Home | Current Version | Previous Version | Text Only | Print | Product List | Glossary On
Versions: 1 2 3 4 5 6 7 8 9 10 11 12 13 14 15 16 17 18 19 20 21 22 23 24 25 26 27 28 29 30 31 32 33 34 35 36 37 38 39 40 41 42 43 44 45 46 47 48 49 50
000
ASUS42 KRAH 251210
RWRRAH
NORTH CAROLINA WEATHER ROUNDUP
NATIONAL WEATHER SERVICE RALEIGH NC
700 AM EST SUN FEB 25 2018

NOTE: "FAIR" INDICATES FEW OR NO CLOUDS BELOW 12,000 FEET WITH NO
SIGNIFICANT WEATHER AND/OR OBSTRUCTIONS TO VISIBILITY.

NCZ001-053-055-056-065-067-251300-
WESTERN NORTH CAROLINA

CITY           SKY/WX    TMP DP  RH WIND       PRES   REMARKS
ASHEVILLE      MOCLDY    62  54  74 S9        30.02R
JEFFERSON      LGT RAIN  57  53  85 SW5       30.01R
MORGANTON      CLOUDY    67  56  67 SW10      30.02R
HICKORY        MOCLDY    63  57  81 S9G18     29.98S
RUTHERFORDTON  CLOUDY    63  59  87 S9G16     30.01S
MOUNT AIRY     MOCLDY    64  58  81 S6        30.00R
BOONE          MOCLDY    57  52  84 CALM      30.03R
$$

NCZ021-022-025-041-071-084-088-251300-
CENTRAL NORTH CAROLINA

CITY           SKY/WX    TMP DP  RH WIND       PRES   REMARKS
CHARLOTTE      FAIR      63  59  87 S13       30.04R
GREENSBORO     MOCLDY    62  58  86 S13       29.98F
WINSTON-SALEM  FAIR      64  58  80 S7        29.99S
RALEIGH-DURHAM FAIR      63  61  93 SW13      30.04S
FORT BRAGG     FAIR      65  63  93 S7        30.06R
FAYETTEVILLE   FAIR      65  63  93 SW9       30.07R
BURLINGTON     FAIR      65  60  84 S7        30.00F
LAURINBURG     FAIR      64  62  93 SW10      30.08S
$$

NCZ011-015-027-028-043-044-047-080-103-251300-
NORTHEASTERN NORTH CAROLINA

CITY           SKY/WX    TMP DP  RH WIND       PRES   REMARKS
ROCKY MT-WILSO FAIR      65  62  90 S10G23    30.05S
GREENVILLE     CLOUDY    64  63  94 SW10      30.09R
WASHINGTON     MOCLDY    64  63  94 SW6       30.09R
ELIZABETH CITY FAIR      64  63  96 SW14      30.07R
MANTEO         FAIR      64  61  90 SW15      30.08S
CAPE HATTERAS  FAIR      65  63  93 SW12      30.11S
$$

NCZ078-087-090-091-093-098-101-251300-
SOUTHEASTERN NORTH CAROLINA

CITY           SKY/WX    TMP DP  RH WIND       PRES   REMARKS
LUMBERTON      FAIR      65  63  93 S7        30.08R
GOLDSBORO      FAIR      65  63  92 SW10G17   30.06R
KINSTON        MOCLDY    64  63  94 SW10      30.09S
KENANSVILLE    CLOUDY    66  63  88 SW6       30.10R
NEW BERN       MOCLDY    64  62  93 S8        30.11R
CHERRY POINT   NOT AVBL
BEAUFORT       FAIR      64  61  90 SW10      30.12R
JACKSONVILLE   FAIR      65  63  93 SW7       30.11R
WILMINGTON     FAIR      68  65  90 SW12      30.12R
$$




USA.gov is the U.S. government's official web portal to all federal, state and local government web resources and services.